Weather History for KMTN - December, 2012

Change the Weather History Date:

Wednesday, December 19, 2012

  Actual Average Record
Temperature  
Mean Temperature 44 °F -  
Max Temperature 53 °F 41 °F 53 °F (1998)
Min Temperature 35 °F 28 °F 23 °F (2010)
Degree Days  
Heating Degree Days 21    
Moisture  
Dew Point 33 °F    
Average Humidity 70    
Maximum Humidity 93    
Minimum Humidity 50    
Precipitation  
Precipitation 0.00 in - - ()
Sea Level Pressure  
Sea Level Pressure 29.95 in    
Wind  
Wind Speed 5 mph (West)    
Max Wind Speed 17 mph    
Max Gust Speed 26 mph    
Visibility 10 miles    
Events      
Averages and records for this station are not official NWS values.
T = Trace of Precipitation, MM = Missing Value Source: NWS Daily Summary

Daily Weather History Graph

Daily Weather History Graph

Search for Another Location

Airport or City:

Trip Planner

Search our weather history database for the weather conditions in past years. The results will help you decide how hot, cold, wet, or windy it might be!

Date:

Astronomy

Dec. 19, 2012 Rise Set
Actual Time 7:21 AM EST 4:44 PM EST
Civil Twilight 6:50 AM EST 5:15 PM EST
Nautical Twilight 6:17 AM EST 5:48 PM EST
Astronomical Twilight 5:44 AM EST 6:21 PM EST
Moon 11:31 AM EST (12/19) No Moon Set
Length of Visible Light 10h 24m
Length of Day
9h 23m
Waxing Crescent, 45% of the Moon is Illuminated
Dec 19
Waxing Crescent
Dec 20
First Quarter
Dec 28
Full
Jan 4
Last Quarter
Jan 11
New

Hourly Weather History & Observations

Time (EST) Temp. Windchill Dew Point Humidity Pressure Visibility Wind Dir Wind Speed Gust Speed Precip Events Conditions
12:18 AM 42.8 °F 39.3 °F 32.0 °F 66% 29.82 in 10.0 mi SW 5.8 mph - N/A   Clear
12:39 AM 41.0 °F 37.1 °F 32.0 °F 70% 29.81 in 10.0 mi WSW 5.8 mph - N/A   Clear
1:00 AM 41.0 °F 38.0 °F 32.0 °F 70% 29.82 in 10.0 mi WSW 4.6 mph - N/A   Clear
1:21 AM 39.2 °F 37.0 °F 32.0 °F 75% 29.82 in 10.0 mi SW 3.5 mph - N/A   Clear
1:42 AM 41.0 °F 38.0 °F 32.0 °F 70% 29.82 in 10.0 mi WSW 4.6 mph - N/A   Clear
2:06 AM 41.0 °F 39.0 °F 32.0 °F 70% 29.82 in 10.0 mi SSW 3.5 mph - N/A   Clear
2:27 AM 41.0 °F 38.0 °F 32.0 °F 70% 29.82 in 10.0 mi WSW 4.6 mph - N/A   Clear
2:48 AM 41.0 °F 39.0 °F 32.0 °F 70% 29.84 in 10.0 mi WSW 3.5 mph - N/A   Clear
3:09 AM 41.0 °F 39.0 °F 32.0 °F 70% 29.84 in 10.0 mi SW 3.5 mph - N/A   Clear
3:51 AM 39.2 °F 37.0 °F 32.0 °F 75% 29.82 in 10.0 mi SSW 3.5 mph - N/A   Clear
4:12 AM 41.0 °F 38.0 °F 32.0 °F 70% 29.83 in 10.0 mi SW 4.6 mph - N/A   Clear
4:33 AM 41.0 °F 39.0 °F 32.0 °F 70% 29.83 in 10.0 mi SW 3.5 mph - N/A   Clear
4:54 AM 41.0 °F 39.0 °F 32.0 °F 70% 29.84 in 10.0 mi SW 3.5 mph - N/A   Clear
5:15 AM 39.2 °F - 32.0 °F 75% 29.85 in 10.0 mi Calm Calm - N/A   Mostly Cloudy
5:30 AM 37.4 °F - 32.0 °F 81% 29.86 in 10.0 mi Calm Calm - N/A   Overcast
5:55 AM 39.2 °F - 33.8 °F 81% 29.87 in 10.0 mi Calm Calm - N/A   Overcast
6:45 AM 39.2 °F - 35.6 °F 87% 29.88 in 10.0 mi Calm Calm - N/A   Overcast
7:50 AM 41.0 °F - 33.8 °F 76% 29.90 in 10.0 mi Calm Calm - N/A   Mostly Cloudy
8:45 AM 41.0 °F - 35.6 °F 81% 29.92 in 10.0 mi Calm Calm - N/A   Scattered Clouds
9:45 AM 46.4 °F 43.5 °F 35.6 °F 66% 29.93 in 10.0 mi West 5.8 mph - N/A   Scattered Clouds
10:55 AM 51.8 °F - 35.6 °F 54% 29.92 in 10.0 mi NW 12.7 mph - N/A   Scattered Clouds
11:55 AM 53.6 °F - 35.6 °F 51% 29.93 in 10.0 mi WNW 15.0 mph - N/A   Mostly Cloudy
12:50 PM 53.6 °F - 35.6 °F 51% 29.93 in 10.0 mi NW 12.7 mph - N/A   Mostly Cloudy
1:50 PM 51.8 °F - 35.6 °F 54% 29.95 in 10.0 mi WNW 12.7 mph 24.2 mph N/A   Mostly Cloudy
2:55 PM 51.8 °F - 35.6 °F 54% 29.98 in 10.0 mi WNW 17.3 mph 26.5 mph N/A   Overcast
3:55 PM 50.0 °F - 35.6 °F 58% 30.02 in 10.0 mi WNW 13.8 mph 21.9 mph N/A   Mostly Cloudy
4:54 PM 50.0 °F - 33.8 °F 54% 30.04 in 10.0 mi WNW 15.0 mph 20.7 mph N/A   Mostly Cloudy
5:55 PM 50.0 °F - 33.8 °F 54% 30.09 in 10.0 mi NW 12.7 mph 23.0 mph N/A   Overcast
6:54 PM 48.2 °F - 30.2 °F 50% 30.11 in 10.0 mi WNW 15.0 mph 21.9 mph N/A   Scattered Clouds
7:54 PM 44.6 °F 42.2 °F 30.2 °F 57% 30.14 in 10.0 mi WNW 4.6 mph - N/A   Scattered Clouds
8:55 PM 41.0 °F - 30.2 °F 65% 30.16 in 10.0 mi Calm Calm - N/A   Partly Cloudy
9:45 PM 39.2 °F - 33.8 °F 81% 30.17 in 10.0 mi Calm Calm - N/A   Partly Cloudy
10:15 PM 35.6 °F - 33.8 °F 93% 30.18 in 10.0 mi Calm Calm - N/A   Clear
10:39 PM 35.6 °F - 32.0 °F 87% 30.19 in 10.0 mi Calm Calm - N/A   Clear
11:00 PM 35.6 °F 32.8 °F 32.0 °F 87% 30.20 in 10.0 mi West 3.5 mph - N/A   Clear
11:21 PM 35.6 °F 31.7 °F 32.0 °F 87% 30.19 in 10.0 mi WNW 4.6 mph - N/A   Clear
11:42 PM 35.6 °F 31.7 °F 32.0 °F 87% 30.19 in 10.0 mi West 4.6 mph - N/A   Clear